Погода в Чумпу-Кытыле

Россия / Республика Саха (Якутия)     65°22′15″N   143°08′46″E
темп.,
°C
ветер,
м/с
пор.,
м/с
влажн.,
%
обл.,
%
осадки,
мм/ч
давл.,
гПа
погр.,
м
1 марта, пн
пн123:00−35ссв0010045 0.0 102319
02:00−36ссз0010053 0.0 102219
05:00−36всв0010056 0.0 102219
08:00−37ссз0010093 0.0 102219
11:00−32з009894 0.0 102128
14:00−29зюз1193100 0.0 1020137
17:00−29зюз019599 0.0 102019
20:00−34всв0010073 0.0 102119
2 марта, вт
вт223:00−35св0110062 0.0 102219
02:00−36ссв119954 0.0 102219
05:00−36ссв019951 0.0 102319
08:00−37с009877 0.0 102419
11:00−32сз019479 0.0 102329
14:00−28зсз118969 0.0 1023146
17:00−28зсз119385 0.0 102220
20:00−31с1192100 0.0 102319
3 марта, ср
ср323:00−31ссз1189100 0.0 102319
02:00−31ссз1188100 0.0 102219
05:00−30ссз1195100 0.0 102120
08:00−30ссз1299100 0.1 102021
11:00−29сз2296100 0.3 1018127
14:00−27сз2191100 0.1 1016275
17:00−28ссз2294100 0.1 1014109
20:00−35с2294100 0.0 101519
4 марта, чт
чт423:00−37с229498 0.0 101419
02:00−38с229495 0.0 101320
05:00−36с239398 0.0 101235
08:00−35с2396100 0.1 101054
11:00−33с3394100 0.1 1009231
14:00−31ссз3490100 0.1 1007386
17:00−30с3495100 0.2 1007338
20:00−32с2398100 0.2 100744
5 марта, пт
пт523:00−31с2299100 0.5 100845
02:00−29с2299100 0.4 100852
05:00−29с1199100 0.9 100936
08:00−29ссв1199100 0.4 100937
11:00−28с0296100 0.9 1010318
14:00−26сз1293100 0.4 1009496
17:00−27зсз1296100 0.8 1010394
20:00−29ююз11100100 0.4 101137